Theta_e
331 334 339 340 341 343 343 343 343 342 342 342 342 343 342 342 342 342 341 341 340 340 340 339 339 339 339 340 340 340 339 339 339 339 339 339 339 339 339 340 340 341 341 340 341 340 333 327 326 322 321 324 330 333 335 335 336 337 337 338 339 340 340 339 336 336 338 338 339 340 340 339 336 334 328 326 327 329 332 335 336 337 339 339 338
327 332 338 339 340 342 344 343 343 343 342 342 342 342 343 343 342 341 341 341 340 340 340 339 338 338 338 339 339 339 339 339 339 339 339 339 339 340 340 339 339 339 339 340 341 340 333 328 327 324 322 321 324 328 331 334 335 336 337 337 338 339 340 338 335 334 335 335 337 338 338 337 336 334 329 324 323 324 327 330 333 336 339 340 340
325 331 335 338 339 341 343 342 343 342 341 341 342 342 343 343 342 341 340 341 340 340 339 339 338 337 337 339 339 339 339 339 339 339 339 338 337 338 338 338 338 338 338 340 341 339 333 328 327 326 324 323 323 323 325 329 331 333 334 336 336 337 338 338 336 334 333 332 334 334 335 335 334 332 327 324 322 321 321 324 330 334 338 340 339
326 330 332 337 338 340 342 341 342 342 341 341 342 342 343 343 342 341 340 341 340 339 339 339 339 336 336 337 338 338 338 338 338 337 336 335 335 335 336 337 337 338 339 339 340 339 334 330 329 327 326 325 324 323 323 324 325 327 330 333 335 336 337 337 337 335 335 334 334 333 332 330 331 330 326 322 322 321 321 320 326 331 336 339 339
326 330 331 335 336 339 340 341 342 341 341 340 342 342 342 343 343 342 340 340 340 339 339 339 339 337 335 336 338 337 337 336 336 336 334 333 333 333 334 336 337 337 339 339 339 338 336 335 332 329 327 325 323 322 323 323 323 322 325 328 332 335 337 337 336 336 335 337 336 332 330 329 330 331 329 326 326 326 325 323 323 327 331 337 339
327 330 331 333 335 338 339 341 342 341 341 340 341 342 342 342 343 342 341 341 340 340 339 340 339 336 335 337 338 338 337 336 336 335 335 333 332 333 334 335 337 337 338 339 339 338 337 336 334 332 329 326 323 323 324 325 324 322 321 322 327 331 335 337 336 334 332 335 336 333 333 334 334 335 335 333 333 333 331 328 326 325 326 329 334
329 330 331 332 334 337 338 340 341 341 341 340 341 341 342 342 343 342 341 341 341 340 340 340 338 335 336 338 338 338 337 337 336 335 335 334 332 332 333 335 337 337 338 338 338 337 336 335 333 331 330 329 327 325 325 325 325 325 323 319 321 325 330 334 336 334 330 334 336 335 336 336 337 337 338 337 337 336 333 332 330 328 326 325 326
330 332 331 330 333 335 337 339 341 341 340 341 341 341 341 341 342 342 342 341 340 341 340 339 338 336 335 337 338 337 337 336 336 335 334 334 332 332 332 335 337 337 336 337 337 336 335 334 333 331 328 327 329 328 326 326 326 326 323 318 315 319 325 328 332 332 331 334 336 336 336 335 336 336 337 337 337 335 333 333 333 331 329 328 326
330 334 333 330 331 332 335 338 339 340 340 340 340 341 341 342 342 341 341 340 340 340 339 338 338 337 334 335 335 335 336 335 334 335 334 334 332 331 333 335 336 336 336 337 336 336 334 332 330 330 325 319 322 327 328 328 325 319 315 311 306 310 321 325 326 329 331 335 336 335 335 333 333 334 336 336 336 334 332 331 332 332 331 331 330
329 334 335 332 331 332 334 336 338 339 340 340 340 341 340 342 341 341 341 340 340 340 339 338 337 337 335 335 335 335 335 334 335 335 334 334 332 331 332 334 335 336 337 337 336 334 333 331 329 328 323 317 316 319 325 327 317 309 304 302 301 303 316 324 325 326 330 334 335 334 334 333 331 334 336 335 334 332 331 329 330 332 332 332 332
330 334 336 336 333 332 333 336 338 338 339 340 340 340 340 341 341 341 340 340 340 340 339 337 338 337 335 336 337 335 334 335 336 335 335 334 333 332 332 334 335 336 337 336 335 334 332 331 330 328 323 323 323 313 314 316 306 302 301 300 300 301 311 320 324 325 328 332 333 332 333 332 330 333 336 335 333 332 331 330 331 333 333 333 332
330 333 335 337 335 334 333 336 338 339 339 339 340 339 340 340 340 340 339 339 338 339 339 336 338 337 336 336 337 335 334 336 337 336 335 333 332 332 332 332 335 336 336 335 334 332 331 331 330 328 326 327 328 316 302 303 300 300 300 300 300 301 309 317 323 324 326 329 331 331 332 331 330 332 335 334 334 333 332 330 329 332 334 333 333
328 332 334 336 336 335 333 335 338 339 339 339 339 338 339 339 340 340 339 339 337 339 338 336 337 337 336 336 336 335 334 336 337 337 336 333 331 332 332 333 335 335 334 334 332 331 331 331 330 329 329 327 329 318 299 299 300 299 300 300 300 301 307 315 320 324 326 327 330 331 331 331 330 331 334 334 334 333 332 328 325 329 334 333 333
328 330 332 335 336 336 334 334 336 338 338 339 339 338 339 339 340 339 338 338 337 338 337 336 336 336 337 337 336 335 335 336 338 338 336 334 331 331 332 334 335 333 333 332 331 332 330 330 330 329 329 326 325 316 299 299 300 300 301 300 300 301 305 312 318 323 326 327 330 331 331 331 330 331 333 333 333 332 330 328 324 328 333 333 334
329 330 331 333 334 336 335 334 334 337 338 338 339 338 338 339 340 339 338 338 337 337 337 336 335 336 337 337 335 335 335 336 337 337 337 336 332 331 331 332 332 331 331 330 330 330 329 329 329 328 327 323 315 306 299 299 300 300 300 300 300 300 304 310 316 321 325 327 329 331 331 332 331 331 332 331 331 330 328 327 325 328 333 334 334
328 331 331 332 333 336 336 335 334 335 337 338 339 338 338 339 339 338 338 337 337 336 336 337 335 335 336 337 336 334 335 335 337 336 337 336 334 332 331 330 330 331 330 329 330 328 329 329 328 327 326 325 313 299 298 299 299 300 300 301 300 300 303 307 314 319 324 327 328 330 331 332 331 331 330 329 329 328 326 325 325 328 331 332 332
328 331 332 332 334 336 337 337 335 335 336 337 338 338 338 339 339 339 338 337 336 336 335 337 335 333 335 336 335 334 334 335 336 336 336 336 335 334 332 331 331 332 331 330 330 328 328 328 327 327 325 327 319 301 297 299 299 300 300 300 301 301 302 304 310 316 321 326 328 330 330 331 331 330 329 328 328 326 322 322 324 326 328 330 330
330 332 333 334 335 337 337 337 336 335 336 336 337 338 338 338 339 338 338 337 336 335 334 336 335 333 334 335 335 334 333 334 336 336 335 336 336 335 333 333 332 332 332 331 330 328 327 326 326 327 324 324 321 306 297 299 299 299 300 300 301 300 301 302 305 310 316 322 325 328 329 330 330 329 328 327 327 325 320 319 321 322 324 327 328
329 332 334 336 337 338 338 338 337 336 336 336 337 338 339 339 339 339 338 338 336 335 334 335 335 334 334 335 334 333 332 332 334 336 336 336 336 336 334 333 333 332 331 330 329 328 327 326 325 325 323 322 319 307 297 298 298 299 299 300 300 300 301 301 302 305 310 315 320 324 327 328 328 328 328 327 326 325 322 318 317 315 315 321 324
328 329 332 335 337 338 338 338 337 337 336 336 336 337 339 339 339 339 338 338 337 336 335 334 335 335 334 335 334 333 332 332 333 334 335 336 336 336 335 334 333 331 331 330 328 328 327 326 325 324 323 321 317 305 297 298 298 299 299 299 300 300 300 300 301 302 304 308 311 316 321 325 327 327 327 327 325 324 323 320 318 315 312 313 317
329 329 329 331 333 336 337 338 338 337 336 335 336 336 338 339 339 338 338 338 337 337 336 335 334 334 334 334 334 333 332 333 333 334 334 334 335 336 335 334 333 332 330 329 327 327 326 326 325 324 323 322 317 306 298 298 298 299 299 299 299 299 300 300 300 300 301 302 304 306 310 317 323 325 326 326 325 324 323 321 319 318 315 313 314
325 329 330 331 332 334 335 336 337 337 337 336 335 335 336 337 338 338 338 338 338 337 337 336 335 334 334 334 334 333 333 334 334 334 334 333 335 336 336 335 333 332 331 329 327 326 326 325 324 323 322 321 318 309 298 297 298 298 299 299 299 299 299 299 299 299 300 299 300 301 303 309 315 320 322 322 322 320 318 315 314 316 318 316 315
315 320 325 329 331 333 334 335 336 336 337 337 336 335 335 336 336 337 338 337 337 337 337 337 335 334 334 334 333 332 333 334 334 334 332 333 335 335 334 334 334 332 331 330 327 325 325 325 324 323 322 320 319 312 301 297 297 298 298 298 298 299 299 299 299 299 299 299 299 299 301 304 309 314 318 319 316 312 309 306 306 311 317 316 313
309 310 315 319 323 328 332 334 334 335 336 337 337 336 336 335 335 336 337 338 338 337 338 337 336 336 335 334 333 333 333 333 333 333 332 332 334 335 332 332 333 332 332 330 327 325 324 324 324 324 323 321 319 314 304 297 297 297 298 298 298 298 298 299 299 299 299 299 299 299 299 301 304 307 314 319 316 312 307 304 304 307 313 316 316
307 309 310 312 314 318 324 330 333 334 335 336 337 338 336 335 335 336 336 336 338 337 337 337 336 335 335 335 334 333 332 333 333 333 333 331 332 334 334 333 333 332 331 330 327 325 324 324 325 324 324 322 320 316 306 298 297 297 297 298 298 298 299 299 299 299 299 299 299 299 299 299 300 301 307 315 317 315 308 305 309 312 316 318 320
309 310 310 311 312 313 317 323 328 331 333 334 336 337 336 335 335 336 336 336 336 336 335 335 336 335 334 333 333 335 335 333 334 334 334 332 331 333 333 333 333 332 330 329 327 325 325 325 325 325 324 323 321 319 311 299 296 298 297 297 298 298 298 298 298 299 299 299 299 299 299 299 299 299 300 305 313 317 309 305 312 317 319 319 319
309 311 312 313 313 313 314 317 322 326 329 332 334 336 336 335 334 336 337 337 337 335 335 335 334 334 333 333 333 334 333 331 332 333 332 331 331 331 332 333 333 331 330 330 328 326 326 325 324 325 324 323 322 321 317 306 297 297 297 297 297 298 297 298 298 298 298 298 299 299 299 299 299 299 299 299 307 317 314 308 315 319 320 319 318
310 312 314 315 316 316 315 315 317 321 325 329 332 334 334 334 333 333 334 335 335 332 333 335 334 332 332 334 333 332 331 330 330 330 330 330 329 329 330 332 332 331 331 330 328 327 326 324 325 326 325 323 322 321 320 315 304 296 297 297 297 297 297 297 297 298 298 298 298 298 299 299 299 298 299 298 300 314 319 314 317 320 320 320 319
309 312 315 317 318 319 319 317 317 319 323 328 332 333 333 334 333 332 332 332 333 331 330 332 334 334 334 334 333 334 335 333 331 329 331 331 328 328 328 329 330 331 332 329 328 328 326 324 326 326 325 323 322 321 320 319 313 302 296 296 297 298 297 297 297 297 297 297 297 298 298 298 299 298 299 299 297 307 319 319 319 321 320 320 319
308 311 315 318 320 321 323 322 321 322 324 327 331 332 332 333 332 331 331 330 331 332 331 330 331 332 332 333 334 334 335 334 331 330 331 332 330 329 329 329 329 330 330 329 329 327 325 325 327 327 325 323 322 322 320 319 318 310 301 297 297 298 297 297 296 296 296 296 296 297 298 298 298 299 298 299 297 301 313 321 321 320 320 320 319
309 312 315 318 321 323 325 325 325 325 326 328 330 331 331 331 331 331 331 331 330 331 331 331 331 330 329 331 332 332 331 331 330 330 329 330 329 327 329 330 329 328 328 329 329 327 327 328 327 326 325 324 322 321 321 319 318 316 310 302 297 298 298 298 297 296 296 295 296 296 297 297 297 298 298 298 298 298 307 317 321 321 320 320 320
308 311 314 318 322 324 326 326 326 327 327 328 329 330 330 330 331 330 331 331 331 331 330 331 331 331 330 330 331 331 331 330 330 330 328 328 327 326 328 329 326 327 329 329 328 327 328 328 326 326 324 323 323 321 320 319 318 317 315 309 301 298 298 298 298 297 296 295 295 295 296 297 297 297 298 297 298 298 301 308 316 320 320 320 320
307 309 314 317 321 323 325 327 327 327 328 328 328 329 329 329 330 330 331 331 331 332 331 332 332 332 332 332 331 331 330 330 330 330 329 328 327 328 328 328 326 328 330 329 328 328 328 328 327 325 324 323 323 322 320 319 318 317 315 313 308 303 300 299 298 298 297 296 295 295 295 296 297 297 298 298 297 298 299 301 308 315 318 319 318
307 310 314 315 319 322 324 326 326 328 328 328 329 329 329 330 330 330 330 329 330 330 329 331 332 331 331 330 331 331 331 330 330 330 329 328 328 328 328 328 328 329 328 328 328 328 327 327 326 325 324 323 323 321 320 318 317 316 315 314 313 311 308 303 300 298 298 297 295 295 295 295 296 297 297 298 297 297 298 299 303 307 312 315 316
307 309 312 314 317 320 323 324 325 326 327 327 328 328 329 328 329 328 328 327 327 327 326 326 326 326 327 328 329 329 329 330 330 330 329 328 328 328 328 328 327 327 327 327 328 328 327 327 326 325 324 323 322 321 319 318 316 315 314 313 313 312 310 307 302 299 298 297 296 295 295 295 295 296 297 297 297 297 298 299 300 304 308 310 311
305 308 310 313 316 319 321 323 324 324 324 325 326 326 326 326 326 325 325 325 325 325 324 324 324 323 324 324 324 324 324 326 326 327 327 327 327 328 328 327 328 328 327 326 326 326 326 326 325 324 323 323 322 320 318 317 316 315 314 313 312 310 308 306 303 300 298 297 296 296 295 295 295 295 296 297 297 297 297 298 299 301 304 306 307
304 307 310 312 315 317 319 321 321 321 322 323 323 324 323 323 322 321 322 322 321 322 321 322 323 322 322 322 321 321 321 321 322 322 323 323 324 325 325 325 326 327 326 324 323 322 322 322 322 322 322 321 320 319 317 317 316 315 314 313 312 311 308 307 304 302 300 297 296 296 296 295 295 295 295 296 296 297 297 297 298 299 301 303 304
303 306 308 310 312 314 316 317 318 318 319 320 320 320 320 320 319 318 319 318 317 316 317 319 319 318 319 319 320 321 321 321 321 321 320 319 320 320 320 321 322 323 323 322 321 320 320 319 319 319 319 319 319 318 316 316 315 314 314 313 312 310 309 307 305 303 301 299 297 296 296 296 295 295 295 296 296 296 297 296 297 298 299 300 301
303 305 306 308 310 312 313 315 315 315 316 316 316 316 317 317 316 316 316 314 312 312 313 314 313 313 314 315 316 317 316 317 317 318 318 317 317 317 317 317 317 317 318 318 318 318 318 318 318 317 317 317 316 316 316 315 314 313 313 312 310 308 307 305 304 303 301 300 298 297 297 297 296 296 295 295 296 296 296 296 296 297 297 298 300
303 304 306 308 309 310 312 313 312 313 314 314 314 314 314 313 312 313 311 308 308 309 309 308 308 309 310 310 311 311 312 313 313 314 314 314 314 314 314 314 314 314 315 315 314 315 315 315 316 316 316 315 315 314 314 313 311 311 311 310 308 306 305 304 302 302 302 301 300 298 297 297 297 296 296 295 295 296 296 296 296 296 297 297 298
302 303 304 305 306 307 309 309 310 312 313 313 312 311 310 309 308 307 305 303 304 305 305 304 305 305 306 307 308 308 309 310 310 310 311 311 311 312 312 313 313 313 313 311 310 311 311 311 311 312 312 312 312 311 310 309 307 306 306 305 305 305 304 303 303 304 304 302 299 298 298 297 297 297 296 296 295 295 295 295 295 296 296 296 297
299 300 301 302 303 306 307 307 308 309 309 309 309 308 306 305 304 302 302 301 301 302 301 301 301 302 302 303 303 304 305 306 306 306 308 308 308 309 309 309 310 310 310 309 308 309 308 308 307 307 308 308 307 307 306 305 303 301 299 299 302 303 303 303 304 303 301 299 299 298 297 297 297 297 296 296 296 296 295 295 295 295 296 296 296
297 298 300 301 303 304 304 305 306 306 306 306 306 305 304 303 302 301 301 300 299 299 299 299 299 300 300 300 300 300 301 301 301 302 303 303 304 304 304 305 305 306 306 306 306 306 305 305 304 304 304 304 304 304 303 303 301 299 298 298 299 299 301 302 300 300 300 301 301 298 296 297 297 297 297 296 296 296 296 296 295 295 295 296 296
296 297 298 300 301 302 303 304 304 304 304 304 303 303 302 302 301 300 300 299 298 299 299 299 299 299 299 299 299 299 299 299 299 299 300 300 300 301 301 301 301 302 303 303 303 302 302 302 301 301 300 300 301 301 301 301 300 300 299 299 297 296 302 301 296 298 302 302 301 298 298 299 299 297 296 296 296 296 296 296 296 296 296 296 296
293 294 295 297 299 300 301 302 302 302 302 302 302 302 302 301 300 300 300 300 299 299 298 297 297 297 297 297 297 298 298 298 298 298 298 299 298 299 299 299 299 299 300 300 299 299 299 300 300 300 299 298 298 298 299 298 298 298 298 298 298 299 301 298 294 298 300 299 299 299 299 299 297 297 297 297 297 297 296 296 296 296 296 296 296
291 291 293 296 298 299 300 301 301 301 301 301 301 301 301 301 300 300 299 297 295 294 293 293 294 294 294 295 295 296 297 297 297 298 298 298 298 298 298 298 298 297 297 298 297 297 297 298 298 299 299 298 298 297 297 297 297 297 296 296 297 298 297 295 295 297 297 296 297 298 298 298 297 298 297 297 297 297 297 296 296 296 296 296 296
290 291 293 295 297 298 299 300 300 300 300 300 300 301 300 300 299 297 295 293 290 288 288 289 290 291 292 292 293 293 294 295 295 295 295 295 296 296 296 296 296 295 296 296 295 295 295 295 296 297 297 297 298 298 296 297 298 297 296 296 295 295 294 294 295 295 295 296 296 296 296 297 297 297 296 297 296 297 297 296 296 296 296 296 296
290 291 292 294 295 296 297 298 298 298 298 298 299 299 299 298 297 295 293 291 289 287 287 288 288 289 289 289 289 289 290 290 290 290 290 290 291 291 291 292 292 293 293 293 294 294 294 294 295 295 295 296 296 296 295 296 296 296 297 297 296 295 295 294 294 294 294 294 294 295 295 295 295 295 295 296 296 296 296 296 296 296 296 296 296
290 290 291 293 294 295 296 296 296 296 296 297 297 297 297 296 295 294 291 288 287 287 287 287 287 287 287 287 287 287 287 287 287 287 287 287 287 287 287 287 288 288 289 290 290 291 291 292 292 293 294 294 294 295 295 294 294 295 295 296 296 296 296 295 294 293 293 293 293 294 293 293 294 294 294 295 295 296 295 295 296 295 296 296 296
289 290 291 292 293 294 295 295 294 294 295 295 295 295 294 294 293 291 289 287 287 287 287 287 286 287 286 286 286 286 286 286 286 286 286 286 286 286 286 286 286 286 286 286 287 287 287 288 289 289 290 290 291 292 292 293 293 293 293 293 294 294 294 294 294 293 292 292 292 292 292 292 293 293 294 294 294 295 295 295 295 295 295 296 296
289 290 291 292 293 293 294 293 292 292 292 293 293 292 292 292 291 289 288 287 287 287 287 286 286 286 286 286 286 286 286 286 286 286 286 286 286 286 286 285 286 286 286 286 285 285 285 286 286 286 286 286 287 287 288 289 289 290 291 292 292 292 292 292 292 292 292 291 292 292 292 292 292 293 294 294 294 294 295 295 295 295 295 295 296
Wind_Speed
17 20 24 24 22 19 17 16 15 15 16 15 14 14 12 12 12 12 10 11 11 11 10 10 10 10 10 11 10 10 11 11 11 10 10 9 9 9 8 8 7 6 6 7 8 8 8 9 10 10 12 13 13 13 13 13 12 10 9 9 8 8 9 9 9 9 9 10 10 10 9 9 9 11 11 10 10 9 10 10 10 11 11 11 11
17 21 24 25 22 21 18 16 16 15 16 15 14 14 13 12 11 11 10 11 11 11 10 9 10 10 10 10 10 9 10 10 10 9 9 8 8 8 7 6 5 4 5 6 8 8 7 9 9 9 10 11 12 12 12 11 10 10 9 8 7 7 7 8 8 9 9 9 10 10 9 9 9 9 10 9 9 8 9 9 10 11 11 10 10
17 22 24 25 23 22 20 17 17 15 16 15 14 14 13 12 11 11 10 11 11 11 11 10 10 10 11 10 10 9 9 9 8 8 8 7 8 8 7 5 4 4 4 5 7 7 7 8 8 7 8 9 10 10 10 10 9 8 8 7 7 6 6 7 8 8 9 9 8 8 8 8 8 9 9 9 9 9 9 9 10 11 11 10 10
18 23 24 26 24 23 21 19 17 16 16 16 15 14 14 12 11 11 10 10 10 11 10 10 10 10 11 10 10 9 9 8 8 7 7 7 7 7 6 6 4 4 4 5 5 7 7 7 6 6 5 6 6 8 8 8 7 6 6 6 6 6 5 6 7 7 8 8 7 7 7 8 9 8 8 9 10 11 11 10 10 11 11 10 10
19 22 23 27 25 23 22 20 19 18 17 17 16 15 15 13 11 11 11 10 9 9 9 9 9 10 11 11 10 9 9 8 8 8 8 7 7 6 6 6 4 4 5 5 5 6 5 4 5 4 2 3 3 5 6 6 5 4 4 4 4 5 4 5 5 6 6 6 6 7 7 8 9 8 7 9 9 10 11 11 11 10 10 10 9
17 21 22 27 26 24 23 22 20 19 19 18 18 16 15 14 12 11 11 9 9 8 8 7 8 9 10 10 10 9 8 7 7 7 7 6 6 7 6 5 4 4 4 6 7 5 4 2 4 4 2 1 1 1 2 3 3 2 2 1 2 3 3 4 4 4 4 4 5 7 7 8 8 7 6 8 8 8 9 10 10 9 9 8 8
14 18 21 26 26 25 23 23 21 19 19 19 19 17 16 15 14 12 11 10 9 8 7 7 7 8 9 9 9 8 7 6 6 5 5 4 5 6 5 5 4 4 4 6 6 3 3 3 6 5 2 2 3 3 4 4 3 3 2 2 2 2 2 3 3 2 2 3 4 6 7 7 7 5 5 7 7 7 9 9 9 9 8 7 6
13 16 19 24 26 25 23 22 22 20 19 19 19 18 17 15 15 13 12 11 10 9 8 8 7 7 8 9 9 8 6 5 5 4 3 2 3 4 4 4 4 3 3 4 4 3 3 4 6 6 4 4 5 6 7 7 6 5 4 5 5 5 4 3 3 1 2 3 4 5 5 6 5 4 4 5 6 7 8 8 9 8 8 8 6
12 16 17 22 25 25 23 22 22 20 19 19 19 18 17 15 15 15 13 12 11 10 9 9 8 7 8 8 8 8 6 5 4 2 2 1 2 3 3 4 4 3 3 4 3 3 4 5 6 5 7 9 7 8 8 7 7 6 6 5 5 7 7 5 3 3 2 4 4 4 4 5 5 4 4 3 5 7 7 7 8 7 8 8 7
11 15 16 20 23 24 24 23 22 21 19 19 19 18 16 15 16 15 13 12 12 10 10 10 10 9 8 7 7 6 5 4 3 2 1 1 1 2 3 3 3 4 4 4 3 3 5 6 5 4 7 11 11 8 7 7 7 6 5 4 3 5 7 6 4 4 3 4 4 3 3 4 4 4 4 4 5 5 6 7 7 7 8 7 6
10 13 15 17 20 23 23 23 23 21 20 19 19 19 17 16 15 15 13 12 12 11 10 11 11 10 9 8 7 6 5 5 4 3 2 1 1 2 3 2 2 4 4 4 3 3 5 5 4 4 7 11 14 11 7 6 5 4 3 2 0 3 5 5 5 5 5 5 4 2 2 2 3 4 3 4 4 4 5 5 6 6 6 5 5
9 12 13 15 17 21 23 23 22 21 20 19 19 19 18 17 16 15 14 13 12 11 11 11 11 11 10 9 8 7 6 6 6 5 3 2 2 4 4 3 3 4 3 2 1 2 4 4 4 6 10 12 15 14 8 5 4 3 3 3 1 1 3 4 5 5 5 5 4 3 2 1 2 2 2 3 4 4 4 4 4 4 3 3 3
8 10 11 13 15 18 22 23 23 22 21 20 20 19 18 17 16 15 14 13 12 12 12 11 12 11 10 9 8 8 7 7 7 6 4 3 3 4 4 4 4 3 2 1 2 3 4 5 8 11 12 14 15 13 7 4 3 3 3 3 2 1 2 3 4 5 5 5 5 4 3 2 2 2 2 2 3 3 2 3 4 1 1 2 2
6 9 10 11 12 15 20 23 24 22 22 21 20 19 18 18 18 16 15 14 13 13 13 12 12 12 11 9 8 8 8 8 8 7 6 4 4 5 5 4 4 3 2 2 4 5 6 7 10 12 12 14 13 9 6 3 2 3 4 4 3 1 1 2 3 4 5 5 5 5 4 3 3 3 2 1 1 1 2 4 4 1 1 1 1
6 7 9 10 11 13 17 21 24 23 23 22 21 20 19 19 19 17 16 15 14 14 13 12 13 13 12 10 9 9 9 9 8 7 7 5 5 5 5 4 3 1 2 4 6 8 9 7 8 11 11 12 10 6 4 2 2 2 3 4 3 2 1 2 3 4 5 6 5 5 5 4 4 3 1 0 1 2 4 5 5 2 1 1 0
6 7 9 10 10 12 14 18 22 24 23 23 23 21 20 21 20 18 17 16 15 14 14 12 13 13 13 11 10 10 10 10 9 8 8 7 6 6 6 5 3 2 4 5 6 8 8 7 8 10 11 12 11 6 4 2 1 2 3 3 3 3 1 1 3 5 6 6 6 6 6 5 4 3 2 2 1 4 5 5 4 3 1 1 2
6 8 10 10 10 11 12 15 20 23 24 23 23 22 22 21 21 20 18 17 16 15 15 14 13 14 13 12 11 12 12 11 10 8 8 8 8 7 7 6 4 3 4 5 5 7 7 8 10 11 12 14 12 7 4 2 1 1 2 3 3 3 2 0 2 4 6 7 7 7 7 6 5 4 3 2 2 4 5 4 3 4 4 3 3
5 7 9 10 10 11 11 13 16 21 23 23 23 23 22 21 22 21 19 19 18 16 16 15 14 14 14 14 13 13 13 12 10 9 9 9 8 8 7 6 4 3 5 5 6 8 9 10 11 12 13 14 11 8 5 3 2 1 2 2 2 3 2 1 1 3 5 6 7 7 7 7 7 6 3 2 3 4 4 4 4 5 5 5 4
5 6 8 10 11 12 12 13 15 18 22 24 23 23 22 22 21 21 20 19 19 16 16 16 15 16 16 15 14 15 14 13 11 9 9 9 10 9 8 7 6 4 6 6 7 10 11 10 12 12 13 14 11 8 6 4 3 2 2 2 2 2 2 2 2 2 3 5 6 7 7 7 7 7 5 4 5 5 6 6 5 6 7 6 6
6 6 8 10 12 13 13 14 15 16 19 22 24 24 23 22 21 21 21 20 19 17 16 17 17 17 17 16 16 15 15 14 13 11 9 10 11 10 10 9 7 6 7 7 8 10 12 11 12 13 13 14 10 8 7 5 4 3 2 2 2 2 2 2 2 2 2 3 5 6 7 8 8 7 7 7 7 8 8 8 8 9 8 8 8
6 7 8 10 12 13 14 15 16 16 18 20 23 24 24 23 22 22 21 21 20 18 17 17 17 17 17 17 17 17 16 16 14 13 11 10 11 12 11 10 8 8 9 7 8 10 12 13 13 13 14 14 10 8 8 7 5 4 3 3 3 3 3 2 2 2 3 3 3 5 6 8 8 7 6 6 8 9 9 10 10 9 8 7 7
6 7 8 9 11 14 15 15 16 17 18 20 22 23 24 24 23 22 22 22 21 20 18 17 18 18 17 17 17 17 17 16 15 14 12 10 12 13 12 11 10 10 10 9 9 10 12 13 13 13 14 14 11 9 9 7 6 6 5 4 4 3 3 3 3 3 3 3 3 4 5 6 7 7 5 5 8 10 10 9 8 6 5 6 6
8 7 8 8 10 13 15 16 16 17 18 20 21 22 23 23 23 23 23 22 21 20 19 19 18 18 18 17 17 18 18 17 16 15 14 11 13 14 12 12 13 11 12 12 9 10 11 13 14 14 14 14 12 9 10 8 7 7 6 5 4 4 4 4 4 4 4 4 4 4 5 6 6 6 4 4 7 8 8 7 6 5 4 5 5
12 10 9 9 11 13 15 17 17 17 18 20 21 22 23 23 23 23 23 23 22 22 21 20 19 19 19 18 18 18 17 17 17 15 14 12 13 15 13 13 14 12 12 11 7 8 11 13 15 16 15 15 14 10 10 10 8 7 7 6 5 5 5 5 5 5 4 4 4 5 5 5 6 6 4 4 5 7 7 6 5 5 4 4 4
13 12 9 8 10 13 16 17 18 18 18 19 20 22 22 22 22 22 22 22 22 22 21 21 20 19 19 19 18 19 18 16 16 14 14 14 15 16 16 15 15 14 11 8 5 8 12 14 16 17 16 16 15 12 11 11 10 9 8 7 6 6 6 6 6 5 5 5 5 5 5 5 6 6 6 5 5 7 8 5 4 3 3 3 3
15 14 12 9 8 10 14 17 19 19 19 19 19 20 20 21 21 21 21 21 22 21 20 21 21 20 21 21 19 19 18 14 14 15 15 16 16 17 18 18 16 13 11 7 7 11 13 14 16 18 17 16 15 14 12 12 11 10 9 8 7 7 7 7 7 6 6 5 5 5 5 6 6 7 7 7 5 7 8 5 4 3 3 3 3
18 17 15 12 9 8 11 16 18 18 19 18 18 18 18 19 19 20 20 20 21 21 20 19 18 18 20 22 22 21 20 16 17 16 15 17 17 17 18 20 17 14 15 12 12 13 12 14 17 18 18 17 16 15 14 13 13 12 10 9 9 8 9 9 8 7 7 6 6 5 6 6 6 7 7 8 6 6 7 5 4 3 4 5 4
20 19 17 14 12 9 8 12 16 17 17 17 17 17 17 17 17 18 18 19 20 18 17 18 18 16 16 20 22 22 22 20 18 15 17 18 18 18 18 19 18 17 17 13 13 12 11 16 18 18 18 18 17 16 15 14 14 14 12 11 10 10 10 10 9 8 8 7 7 6 6 7 7 7 7 8 7 6 6 6 4 4 5 5 5
22 22 20 17 15 11 7 5 9 12 13 14 16 16 15 15 14 15 16 16 18 16 15 15 15 15 16 19 20 23 24 20 16 14 18 18 15 17 19 21 22 21 18 13 14 12 12 17 17 17 17 18 17 17 16 15 14 15 14 13 12 12 12 11 11 10 9 9 8 7 7 7 7 8 8 8 8 7 6 7 6 6 6 6 7
24 23 22 19 17 13 8 4 1 5 7 10 12 13 13 13 12 13 13 13 14 15 15 15 14 14 15 16 16 19 19 14 13 13 15 15 14 17 22 24 21 18 16 12 14 14 16 17 17 16 16 17 17 17 17 16 15 15 15 15 14 13 12 12 11 11 10 10 9 9 8 8 8 8 9 9 9 8 7 7 8 8 7 7 8
23 23 23 21 18 14 11 8 5 4 2 3 7 9 9 9 9 9 10 11 11 11 12 11 11 11 11 12 12 13 13 10 11 11 12 14 15 18 20 19 14 15 17 14 13 16 20 19 16 14 15 17 17 17 17 17 16 16 16 16 16 15 13 12 12 11 11 11 11 10 10 9 9 9 9 9 9 10 8 7 8 8 9 9 8
22 23 22 21 18 16 14 11 9 8 6 3 1 2 3 3 4 4 6 8 8 6 6 7 7 7 8 9 10 10 11 9 7 7 8 11 13 16 17 14 13 18 20 16 12 16 20 18 15 13 16 17 17 18 18 17 17 17 17 17 17 17 15 14 13 12 12 12 12 12 11 11 10 10 9 10 10 11 10 9 9 9 10 11 10
20 21 21 22 20 18 16 14 12 11 9 8 6 5 4 3 2 1 2 5 7 7 7 9 9 8 9 10 10 9 7 6 6 6 6 7 11 16 17 16 16 18 18 16 15 17 19 17 14 13 15 16 17 17 18 18 18 18 18 17 18 18 18 18 16 15 15 14 14 14 13 13 12 11 10 10 10 11 12 11 11 11 12 13 13
19 20 22 23 22 20 18 16 14 13 12 11 9 9 8 7 6 4 2 1 3 4 4 6 8 9 10 10 9 8 8 7 8 7 6 6 10 12 12 12 13 14 14 15 17 19 18 15 14 15 16 16 16 16 18 18 17 17 18 18 19 19 20 20 19 18 18 17 17 16 15 15 13 13 12 11 11 12 12 12 13 13 13 14 15
19 21 22 23 23 22 22 20 18 16 15 14 13 12 10 9 9 8 6 4 4 4 6 5 4 2 1 3 4 6 9 10 11 11 11 11 12 11 10 9 10 12 13 15 17 18 17 15 16 17 17 16 14 14 16 16 17 17 17 18 19 19 19 20 20 20 20 20 19 19 17 16 15 14 14 13 13 13 14 14 14 15 15 15 15
20 20 21 22 23 24 24 23 23 22 20 19 18 17 15 15 15 15 14 12 11 10 12 12 11 12 11 9 7 5 3 2 5 9 11 13 13 14 14 14 13 14 15 15 16 16 16 17 18 17 17 15 14 13 13 14 15 15 15 16 17 17 18 18 19 19 20 21 21 21 19 18 17 16 15 15 15 15 15 15 16 16 17 17 17
20 20 20 22 23 24 25 25 26 25 25 24 22 22 22 22 22 22 21 19 19 18 17 14 11 13 13 14 14 13 13 11 9 7 4 4 6 9 12 13 13 14 15 14 14 15 16 16 16 16 16 14 14 15 14 14 15 15 15 15 16 17 17 18 19 20 21 21 22 22 21 21 20 18 17 16 17 17 17 17 17 18 18 18 18
21 21 21 22 22 23 24 26 27 27 27 26 26 26 25 24 24 24 23 22 22 21 21 18 17 17 16 15 13 11 12 14 14 13 12 10 8 6 6 6 7 9 11 11 12 13 14 14 14 13 13 13 14 14 15 15 16 16 16 16 17 17 18 19 19 20 21 22 23 23 23 23 22 21 20 19 18 18 18 18 18 19 19 19 19
21 21 21 22 22 22 23 24 25 26 26 26 26 26 25 25 25 24 23 24 24 22 22 21 20 20 19 18 15 14 14 15 15 14 14 13 13 12 11 10 9 7 6 6 7 8 9 10 11 10 10 11 13 13 15 15 15 16 17 18 19 19 19 19 20 21 22 23 24 24 24 24 24 24 23 22 21 20 20 20 20 20 20 20 20
21 21 21 22 23 22 22 23 23 23 23 23 23 23 23 24 24 24 24 25 24 23 22 21 21 20 19 18 17 17 16 15 15 14 14 15 15 16 15 15 13 11 10 8 7 7 7 7 8 8 9 10 11 12 12 13 14 15 17 18 18 18 19 19 19 19 20 21 23 25 25 25 25 25 25 24 23 23 23 23 22 21 21 21 21
22 22 23 23 24 24 24 24 23 21 20 20 20 21 21 23 24 25 26 26 24 23 23 22 21 20 18 17 16 15 14 13 13 13 13 14 14 14 14 15 14 13 12 11 11 10 9 9 8 7 8 8 8 9 9 11 11 11 13 15 17 17 16 15 15 16 18 18 19 22 23 25 26 27 27 26 26 26 25 25 25 24 23 23 23
22 22 23 24 24 25 26 26 24 22 22 21 21 22 23 23 25 26 26 26 25 25 25 25 23 21 20 19 18 17 15 14 14 13 13 13 13 13 14 14 13 12 12 11 11 10 10 10 10 10 8 7 8 8 8 8 6 7 9 11 14 13 11 12 13 12 12 13 16 18 20 22 23 24 26 27 28 28 28 27 27 26 25 25 25
21 22 23 23 24 25 26 26 25 24 24 23 22 23 24 23 24 25 25 27 27 26 26 25 24 23 23 22 21 20 19 18 17 16 15 16 16 16 16 15 14 14 12 12 12 11 11 10 10 10 9 9 8 7 9 8 6 8 8 6 5 6 8 8 8 11 15 17 16 13 14 18 20 21 23 25 26 27 28 29 29 29 29 27 26
21 21 22 23 24 25 25 25 24 24 24 23 24 24 24 24 24 25 25 27 27 25 24 24 23 23 24 23 23 22 21 20 20 19 19 19 18 18 17 17 17 16 15 15 15 15 15 13 12 11 10 10 9 8 9 10 9 8 5 3 2 3 4 4 10 19 20 15 12 13 18 22 20 19 19 21 23 24 25 26 27 29 30 30 30
20 20 21 22 23 24 24 23 23 23 22 21 21 21 21 22 23 23 23 24 25 24 25 25 25 24 25 24 23 22 22 22 21 21 21 20 20 19 18 17 17 17 16 17 17 17 16 16 15 14 12 12 11 10 9 11 11 8 5 4 3 2 2 6 13 15 13 12 16 19 20 18 18 19 22 24 26 26 26 25 26 27 28 30 31
19 19 20 22 23 23 23 23 23 22 21 20 19 18 19 20 20 21 22 25 26 26 26 26 27 27 27 26 24 23 23 22 22 22 21 21 20 20 19 18 18 18 17 16 17 17 17 17 16 15 15 13 12 12 13 13 11 9 9 7 6 6 6 9 9 6 12 17 16 16 16 18 23 26 27 27 28 28 28 27 27 26 27 29 30
17 19 21 22 23 23 24 23 24 24 23 22 20 20 22 22 24 26 27 28 28 26 25 27 28 29 29 28 28 27 26 25 25 24 24 23 22 22 22 21 21 21 19 18 19 18 17 17 16 15 15 15 14 15 15 15 12 10 12 10 9 10 10 10 5 4 10 12 11 15 19 21 23 25 26 27 27 28 28 28 28 28 28 29 29
16 19 21 23 24 24 25 25 25 25 24 24 23 23 24 26 27 29 30 30 29 28 27 28 28 28 29 30 30 30 29 29 28 28 27 26 26 26 25 26 26 25 25 24 23 21 19 18 17 16 15 15 16 15 15 16 14 13 13 12 12 12 12 11 9 7 5 6 12 17 18 19 21 22 25 27 28 28 29 29 29 30 30 30 29
17 20 22 23 24 25 25 26 26 26 26 25 25 25 25 26 28 30 31 30 28 27 26 27 27 27 28 29 29 29 29 28 28 28 28 27 27 27 27 27 28 27 27 26 25 23 23 22 20 19 18 17 16 15 15 15 15 14 14 14 13 14 14 12 9 9 6 5 8 11 17 24 24 24 24 25 28 29 30 31 32 31 31 32 32
17 19 22 23 24 24 25 26 27 26 26 24 25 26 26 26 27 29 29 28 26 25 25 26 26 26 27 28 27 27 27 27 26 26 26 26 26 26 26 26 26 26 26 25 25 24 24 23 22 21 20 20 19 18 17 16 15 14 14 14 13 13 12 8 8 12 9 6 6 8 17 21 20 24 25 23 27 30 31 32 32 32 32 32 33
16 19 21 22 22 23 23 25 26 25 25 24 24 25 25 25 26 26 26 25 24 23 24 25 24 24 26 26 25 25 25 25 24 24 24 23 23 23 23 23 23 23 23 23 23 22 21 20 20 20 20 20 19 19 18 17 17 16 15 15 14 12 9 6 8 12 9 7 7 7 14 20 21 27 30 29 31 32 31 31 31 31 32 32 32
Wind_Direction
186 171 178 176 172 174 180 182 181 183 180 177 174 174 174 171 165 163 160 151 144 141 139 132 130 129 126 124 123 124 125 123 120 118 112 105 100 95 89 87 93 102 111 110 92 76 75 82 83 84 84 82 81 78 80 86 85 86 91 94 95 89 91 93 98 101 96 96 91 85 81 78 73 66 65 68 72 73 75 77 80 82 77 75 79
183 172 179 181 175 174 182 183 183 186 181 178 175 179 179 176 171 171 167 156 153 148 145 140 136 134 130 128 127 125 127 124 120 120 116 113 112 105 97 99 111 110 102 102 93 87 85 84 84 85 88 88 87 86 85 86 88 88 90 93 97 95 92 88 89 96 97 99 97 93 88 80 74 69 65 66 72 75 77 79 79 79 73 68 69
179 175 179 183 180 176 182 182 186 189 183 179 178 183 183 183 178 179 176 163 160 154 150 147 142 139 137 135 132 129 131 127 125 126 122 124 125 116 109 108 113 109 104 108 102 95 86 83 83 82 87 90 91 91 90 86 85 86 88 92 97 101 99 91 87 92 94 94 93 92 90 79 72 69 68 66 69 72 73 74 74 75 71 64 65
182 178 178 184 184 179 181 182 186 190 187 182 181 187 187 188 183 184 182 170 165 159 155 152 148 145 144 143 138 139 140 138 138 139 134 134 135 129 122 114 109 107 108 114 114 106 88 79 77 78 83 86 92 92 92 86 81 81 83 90 97 106 106 99 92 91 90 88 87 86 87 82 76 69 70 73 72 72 70 68 69 73 73 62 60
182 181 178 184 187 183 182 182 186 190 189 185 186 191 189 191 188 187 185 175 169 164 160 157 155 153 152 150 148 148 148 148 149 148 145 143 144 138 127 123 120 113 117 113 107 103 86 68 55 57 66 71 84 82 85 78 75 72 74 90 95 110 115 111 103 90 81 80 84 89 89 84 80 69 66 72 73 71 69 67 64 67 73 69 60
183 185 181 184 189 187 184 183 188 192 190 188 190 193 192 193 191 188 185 178 175 172 168 167 165 160 157 153 151 151 150 151 150 149 149 150 153 147 132 128 130 129 130 105 94 87 65 27 6 7 340 346 357 15 46 46 47 34 27 101 108 123 132 134 124 90 68 79 88 92 88 82 82 76 67 66 66 64 65 67 65 62 64 72 74
183 189 186 185 190 190 186 185 189 193 192 191 192 194 193 196 195 190 186 181 181 180 175 177 174 165 160 156 154 154 155 153 151 153 159 161 155 150 142 138 136 143 144 111 94 63 30 337 337 352 341 305 295 298 296 303 314 321 320 287 248 202 175 169 159 105 68 105 102 90 86 82 78 74 71 66 67 64 62 64 64 61 54 56 64
184 193 192 188 193 193 190 187 190 194 194 195 195 196 194 198 198 194 192 186 186 185 181 182 179 173 163 160 162 160 163 162 157 159 168 173 156 149 152 149 144 153 152 122 97 56 34 348 335 344 355 334 289 280 285 289 298 300 297 290 263 236 219 200 189 166 106 138 127 99 94 81 70 64 72 71 74 69 60 59 59 59 55 50 43
188 196 197 193 195 196 194 190 193 195 196 198 198 199 197 200 202 199 197 192 191 187 186 184 179 181 170 165 167 165 169 169 164 173 173 180 180 155 162 160 150 153 140 117 96 63 38 6 348 343 359 357 316 281 278 286 298 303 301 295 267 239 226 214 196 184 153 158 160 131 108 75 58 59 69 63 64 62 52 47 52 52 50 53 46
192 196 202 200 199 199 198 195 197 198 198 202 202 201 199 204 207 205 201 198 198 193 194 188 178 183 178 170 169 166 170 173 171 190 210 219 224 175 175 169 147 142 128 108 79 37 30 6 355 358 1 6 348 314 285 287 297 301 309 311 269 232 221 216 203 192 187 180 191 173 112 72 52 56 62 58 59 56 45 37 45 48 47 50 43
194 198 205 206 205 203 202 199 200 201 201 205 207 204 200 207 211 210 206 204 205 200 201 191 182 185 180 177 180 180 179 184 191 204 222 226 205 171 181 180 138 126 119 93 68 28 21 5 6 1 342 350 347 334 305 289 293 298 330 359 278 212 208 206 204 198 198 201 214 202 123 76 55 57 54 59 61 48 39 35 41 44 43 40 34
195 201 208 211 211 207 206 203 203 205 204 207 212 208 203 209 213 214 211 209 209 204 204 193 187 189 184 185 189 191 191 194 200 209 218 201 170 166 178 179 147 127 123 107 96 2 3 341 320 318 321 330 332 331 315 290 293 308 6 28 65 172 192 193 201 200 202 211 217 200 167 126 78 73 54 54 57 48 44 38 28 38 49 12 9
197 202 209 215 214 211 210 207 206 208 209 211 215 213 207 212 215 216 215 212 211 208 209 198 192 194 191 194 197 199 202 204 205 210 221 205 166 171 179 168 153 157 180 213 269 311 333 308 299 302 312 320 322 323 312 292 308 337 14 30 46 104 178 184 193 199 207 212 208 193 188 178 142 117 78 61 64 53 32 11 355 23 100 314 306
200 206 210 216 218 216 214 211 210 210 213 214 217 216 211 215 217 219 218 215 215 213 212 206 199 199 199 201 205 208 212 216 213 208 218 210 174 174 178 172 174 203 243 289 303 313 318 312 302 299 310 321 321 314 302 294 322 350 8 21 33 55 154 184 189 197 208 211 202 192 190 184 163 137 115 97 56 13 318 311 306 288 156 257 200
204 212 213 217 220 220 218 216 214 212 215 217 219 218 214 217 219 221 220 218 219 217 214 213 207 202 204 207 212 218 225 229 225 216 220 214 187 180 186 198 207 250 321 322 319 319 318 314 295 299 317 330 332 312 286 295 326 357 2 10 21 35 120 187 193 196 203 208 206 199 189 182 171 153 168 277 1 290 288 286 271 269 141 185 178
205 213 216 218 219 223 224 221 218 216 216 219 221 220 218 219 221 222 220 220 220 219 215 217 215 207 208 212 216 223 231 238 235 226 226 223 205 196 199 214 227 298 328 327 324 323 315 296 282 302 316 323 330 315 282 293 325 354 355 359 9 21 60 192 203 205 202 206 208 206 197 188 181 169 224 256 290 275 280 281 261 266 258 231 265
218 216 218 220 221 224 228 229 224 220 219 221 223 223 222 221 223 223 221 221 221 221 217 219 220 214 214 218 220 225 233 241 242 235 232 228 215 209 204 213 235 273 315 329 328 318 298 285 287 301 307 311 318 310 286 285 311 341 345 348 350 0 3 253 212 216 211 212 209 208 205 200 195 180 214 241 253 279 276 269 259 263 261 257 258
243 233 227 229 228 230 232 235 232 226 223 222 225 227 226 225 225 226 223 223 224 223 220 221 221 218 220 222 224 229 234 239 244 242 239 234 221 221 214 212 235 273 313 324 324 310 293 287 290 297 304 311 310 299 285 272 288 305 316 330 330 341 342 330 252 232 221 220 215 212 212 206 207 197 196 222 246 274 283 271 259 257 255 254 258
259 246 234 234 234 236 236 238 238 233 229 226 227 229 230 230 228 230 228 227 228 228 224 223 222 221 223 224 227 230 234 238 243 247 245 243 233 228 223 225 243 276 305 316 319 306 297 292 292 297 306 315 309 291 280 267 268 269 280 295 307 321 324 324 307 273 242 230 224 221 220 215 215 214 213 216 234 266 286 286 276 276 275 261 252
268 260 243 238 237 238 237 238 239 237 235 231 230 231 232 233 233 234 233 233 233 232 230 226 225 225 226 227 229 230 235 240 243 247 248 247 244 236 228 232 240 267 294 306 311 301 297 295 296 301 305 315 311 289 279 266 262 260 266 273 285 303 303 309 305 297 274 247 237 230 225 222 220 223 230 236 248 268 279 286 290 294 294 277 263
263 269 261 253 245 242 239 238 239 238 237 235 234 233 233 234 235 237 237 238 237 237 234 230 230 230 230 231 232 232 234 242 247 248 250 249 248 240 234 236 239 262 283 290 301 302 301 299 300 303 305 313 310 288 276 265 268 266 262 271 273 285 290 291 293 289 279 268 255 241 231 227 224 225 239 252 258 267 276 284 289 295 298 288 281
274 265 264 267 261 252 246 241 238 238 237 237 236 235 235 233 234 237 238 240 239 239 236 233 233 234 235 234 234 234 236 242 248 250 254 252 247 241 241 248 244 255 277 284 298 302 302 303 301 303 308 314 311 286 273 263 263 268 263 267 273 276 282 283 282 282 277 277 271 252 239 233 226 226 238 257 262 268 278 286 287 289 293 294 297
313 287 262 259 264 259 255 250 245 239 237 237 237 237 236 235 234 235 237 240 241 240 240 237 235 236 235 237 236 235 239 243 247 252 255 252 245 242 244 254 247 248 274 285 300 301 300 304 301 305 310 316 315 289 270 262 255 262 263 263 272 277 279 281 278 279 280 280 278 267 255 246 235 231 242 261 269 276 285 290 288 285 288 302 311
345 325 288 260 255 253 252 252 252 246 239 236 237 237 236 236 235 234 236 238 241 242 242 242 241 240 237 236 237 235 239 245 251 256 260 257 248 247 245 250 249 246 269 283 296 299 298 302 302 307 311 316 319 299 270 261 254 254 260 263 270 276 276 277 274 276 277 276 278 276 270 263 253 246 247 267 279 288 297 298 291 292 293 314 329
359 350 327 289 265 254 247 244 247 247 243 239 237 238 237 236 235 236 237 236 240 240 239 240 239 245 248 243 243 245 242 244 254 259 262 256 244 247 247 245 245 242 258 277 292 301 297 297 304 307 308 313 320 312 280 261 256 252 255 262 267 275 275 272 270 269 270 269 271 273 272 270 266 260 255 263 278 289 302 303 286 295 298 315 327
8 5 358 339 299 268 252 240 238 240 241 241 238 239 239 237 235 236 237 238 240 237 235 237 235 239 245 244 246 247 243 245 256 257 256 251 241 238 241 240 240 246 251 258 295 305 297 294 304 305 303 307 313 314 298 270 258 254 255 260 264 271 272 270 266 265 265 265 265 265 266 268 268 267 262 260 264 283 301 298 267 273 284 299 303
11 9 5 357 338 298 262 243 235 233 236 238 237 238 239 238 238 236 237 239 240 238 232 231 238 244 242 237 235 236 240 247 251 254 257 259 257 245 239 233 233 254 247 246 290 296 292 301 303 299 297 301 306 309 305 285 267 259 258 261 264 268 270 270 267 265 265 264 266 266 268 269 268 268 265 261 254 269 292 290 260 252 263 281 291
15 13 10 5 355 336 288 251 235 231 232 233 234 235 238 238 239 239 239 239 241 247 241 231 238 251 255 243 234 234 237 237 240 251 256 257 265 262 254 243 243 252 239 252 294 282 287 306 298 292 294 296 300 303 303 295 279 267 262 261 263 263 265 266 265 265 265 265 266 269 271 272 272 271 268 264 255 253 272 275 257 248 254 267 274
19 16 14 13 8 359 336 278 238 231 229 231 233 233 237 239 239 241 242 243 244 250 254 253 250 251 257 251 242 240 233 227 236 249 248 247 259 262 256 254 254 242 232 266 281 261 292 308 292 285 291 294 297 300 300 298 289 277 269 264 261 260 260 261 261 262 262 264 267 269 271 272 273 272 270 266 260 252 256 262 257 252 257 260 262
19 19 21 20 19 17 15 16 234 217 221 228 234 235 238 241 243 244 246 251 251 250 253 261 265 259 258 257 251 244 235 236 256 261 255 255 266 265 251 247 251 237 233 268 267 267 298 298 282 281 290 295 296 297 297 297 293 286 279 273 269 264 261 259 259 260 262 264 268 269 268 270 272 272 273 271 267 260 253 257 256 256 262 261 257
23 26 28 28 29 33 40 48 67 94 129 215 231 238 243 248 253 258 258 259 263 263 260 260 267 269 263 259 254 249 256 267 271 269 267 267 271 273 256 241 256 264 258 263 269 284 288 278 274 282 293 296 293 294 294 294 293 290 286 282 277 272 267 264 264 266 266 268 271 272 269 270 271 271 273 273 270 263 257 258 258 262 266 263 259
29 31 34 37 40 43 49 52 60 71 76 92 150 222 249 267 275 285 281 277 279 282 284 278 280 293 285 273 263 259 270 274 267 268 277 277 267 266 259 248 267 272 257 248 265 283 277 270 275 287 297 295 291 293 292 292 292 290 289 286 282 280 277 272 272 275 275 276 277 276 275 275 274 274 274 273 271 266 264 262 256 256 255 252 250
34 39 44 48 50 52 57 58 62 69 74 81 86 90 88 79 72 18 303 277 270 263 263 259 256 267 277 280 275 274 284 279 275 279 282 282 265 258 260 260 266 262 251 248 261 273 267 263 270 283 293 289 288 293 293 293 293 293 293 291 288 286 285 282 282 284 285 285 283 281 279 279 279 277 277 274 273 272 271 267 257 251 247 246 248
40 49 52 55 58 62 67 69 72 76 78 81 85 89 90 93 94 91 91 265 259 259 262 254 250 251 259 263 257 264 280 280 281 283 275 268 261 260 264 267 269 267 266 267 270 272 266 264 271 275 277 278 286 295 297 296 296 297 297 296 295 292 290 288 287 289 290 290 286 283 281 281 281 280 279 278 275 273 272 269 263 260 255 252 253
49 54 57 61 65 69 74 77 80 83 85 86 88 89 92 96 96 94 89 80 76 51 46 55 45 42 318 287 266 262 264 258 257 256 251 246 244 245 252 261 267 268 269 272 275 275 270 268 269 267 267 273 284 295 301 302 300 301 303 302 302 300 296 292 290 291 293 292 288 285 282 281 282 281 280 279 276 272 270 270 267 264 261 260 259
54 59 64 69 72 76 79 82 84 86 88 91 93 95 96 96 94 92 90 86 85 74 62 62 55 50 51 48 45 36 11 284 258 252 246 241 241 241 243 246 250 257 261 262 262 262 260 260 261 263 266 272 281 290 300 305 304 305 307 306 306 305 302 299 295 294 292 290 287 285 283 282 282 281 281 280 278 274 271 269 267 265 263 264 263
58 64 69 74 77 80 84 86 87 90 93 95 97 99 99 98 96 94 93 88 85 82 76 73 65 57 57 58 54 49 46 44 39 25 351 306 281 266 258 253 251 254 258 257 251 248 248 249 251 255 257 265 278 286 293 299 302 303 304 305 306 306 306 304 301 297 293 288 286 285 285 284 282 281 281 280 278 277 274 271 268 267 266 266 265
63 68 71 76 81 84 88 89 92 94 95 97 98 100 101 100 97 93 92 88 85 83 80 78 76 71 66 62 56 46 42 42 41 37 33 29 20 1 336 309 288 274 268 263 254 250 249 245 247 250 254 265 274 282 289 293 297 298 301 304 304 304 304 303 301 298 295 291 288 287 286 285 284 283 282 280 278 278 276 274 272 270 268 268 268
69 72 74 80 84 87 91 94 95 96 96 98 99 99 100 98 96 94 90 86 83 80 77 76 73 71 69 66 64 61 58 55 51 50 51 50 48 45 40 33 20 1 332 304 280 271 266 259 257 257 262 268 272 280 286 290 295 298 302 304 303 302 303 301 300 300 298 296 293 290 289 288 286 285 284 281 280 279 278 277 275 273 271 269 268
74 76 78 82 85 88 93 94 95 98 101 100 99 97 96 94 92 90 87 82 81 79 75 73 70 68 67 64 62 60 59 58 57 56 57 57 57 56 53 51 47 41 30 16 3 346 328 311 295 281 279 278 281 285 288 295 300 301 303 305 306 307 307 305 303 304 303 301 297 294 291 290 288 287 285 284 282 281 280 279 279 277 274 271 269
77 77 79 81 82 86 90 90 91 98 101 98 97 94 91 90 88 86 84 81 81 81 77 74 71 68 66 63 59 56 52 52 53 52 54 55 55 53 50 49 47 44 42 40 33 25 16 5 352 335 319 307 300 298 302 309 311 312 311 310 311 310 309 310 309 310 308 305 301 298 296 292 289 288 286 285 283 282 281 280 281 279 277 274 272
74 76 79 81 83 86 88 88 89 92 92 92 93 92 91 91 90 88 86 83 80 79 77 74 73 72 69 66 63 59 56 56 55 53 53 53 51 50 48 48 50 48 50 49 42 38 34 28 23 13 1 345 332 326 328 329 327 325 321 316 318 319 316 314 313 314 315 314 311 307 301 296 295 295 291 287 285 283 282 282 281 280 279 277 275
77 80 82 85 87 88 89 90 91 92 92 93 93 93 94 94 93 91 89 85 81 79 79 76 74 72 69 66 64 62 61 61 59 58 58 57 56 56 55 55 55 54 53 50 44 41 36 34 33 27 20 11 359 353 354 355 340 327 329 321 326 337 325 319 322 322 320 317 313 313 311 309 311 308 299 294 292 288 286 285 284 283 282 280 278
80 81 84 87 89 90 92 94 96 95 96 96 96 98 99 97 96 94 92 89 86 84 81 76 72 70 68 65 63 62 62 62 62 61 61 61 60 60 58 56 55 52 50 49 46 42 38 35 34 34 30 21 13 7 6 7 356 341 336 318 325 338 307 327 334 320 317 315 308 312 315 313 314 313 308 308 306 303 300 296 293 291 288 286 283
77 78 82 86 90 92 95 97 98 98 99 99 101 104 104 104 103 100 97 92 84 78 75 71 69 69 68 67 66 65 65 65 64 63 62 61 60 60 58 56 55 52 49 49 47 43 39 35 32 33 34 29 21 15 12 11 6 354 335 310 316 326 271 335 336 318 313 312 304 307 311 310 312 312 311 310 310 309 307 305 302 299 296 293 289
75 79 85 90 93 96 98 99 99 99 101 103 107 111 110 109 107 99 91 84 76 69 69 71 71 72 72 72 70 69 67 66 65 63 61 59 58 57 55 54 53 51 49 48 47 42 38 36 32 30 31 30 23 24 21 12 12 12 360 335 311 304 298 324 335 312 310 308 300 302 304 303 306 306 307 307 307 306 306 306 305 303 302 300 297
78 85 91 94 97 99 100 100 99 99 101 102 105 106 104 101 96 90 86 83 80 76 76 78 77 78 77 75 73 71 69 68 66 64 62 60 59 58 57 56 55 54 52 50 49 46 43 40 35 31 30 26 21 26 23 14 14 14 5 355 339 328 317 315 308 298 316 309 297 301 303 304 306 305 305 306 306 305 305 305 305 304 304 303 302
87 92 93 95 97 98 98 99 98 98 99 99 97 95 94 93 92 91 88 87 87 85 84 84 82 82 79 76 74 72 70 69 68 67 65 64 63 63 62 62 60 58 56 54 52 49 46 43 38 35 31 27 25 26 24 20 17 7 357 353 350 347 340 327 305 292 297 301 308 310 310 313 310 305 305 305 305 305 305 305 304 304 304 302 302
95 95 95 96 97 97 98 97 96 97 97 96 95 93 94 95 94 94 92 91 91 90 88 86 83 81 79 77 75 73 72 70 68 67 66 64 64 63 63 63 62 61 59 58 55 52 49 46 42 39 36 34 32 26 22 21 20 12 4 358 352 347 344 342 332 318 298 285 306 315 318 319 314 308 306 306 305 305 304 304 303 302 300 299 299
100 101 101 101 101 100 99 97 95 97 98 97 97 97 97 97 96 97 97 96 94 92 89 84 80 78 76 74 73 72 71 69 68 66 65 63 62 61 61 61 62 61 60 59 57 54 52 49 47 45 44 42 38 32 28 23 18 13 8 5 3 358 349 344 341 334 322 290 284 300 313 318 316 311 310 309 307 306 305 304 302 301 299 298 297
107 108 107 107 105 104 103 100 99 100 100 101 100 99 99 98 98 99 99 97 95 92 86 80 77 75 73 71 70 70 68 67 66 65 63 61 59 58 58 59 59 59 58 57 56 54 52 50 50 48 47 46 43 39 35 28 24 18 12 8 3 2 354 330 319 322 318 295 290 297 305 307 305 302 306 308 307 306 305 304 302 302 301 299 298